Location: Newark
(51.8900°N, 2.0780°W)
Time: 22:42:30
(UTC+00:00)

Envisat - Pass Details

Date: 26 November 2019
Orbit: 764 x 766 km, 98.1° (Epoch: 05 December)

Event Time Altitude Azimuth Distance (km) Brightness Sun altitude
Rises 06:37:02 0° 18° (NNE) 3,245 6.2 -10.2°
Reaches altitude 10° 06:39:28 10° 25° (NNE) 2,314 5.5 -9.8°
Maximum altitude 06:44:21 45° 98° (E) 1,034 4.3 -9.1°
Drops below altitude 10° 06:49:12 10° 171° (S) 2,297 5.9 -8.4°
Sets 06:51:36 0° 178° (S) 3,219 6.6 -8.1°
